Flag for U.S.A. Weather past 2 weeks in Macon, Georgia, U.S.A.

Now
52 °F

Low clouds.


Feels Like: 48 °F
Forecast: 49 / 54 °F
Wind: 10 mph from Northeast

Location: Middle Georgia Regional Airport


UV Index: 0 (Low)

Visibility: 8 mi


Pressure: 29.98 "Hg

Humidity: 97%

Dew point: 51 °F

Location of MaconLocation

Historic Weather in Macon

°F

Macon temperature yesterday

Maximum temperature yesterday: 59 °F (at 12:53 AM)
Minimum temperature yesterday: 50 °F (at 11:53 PM)
Average temperature yesterday: 53 °F

Past Weeks' High & Low Weather Summary

 TemperatureHumidityPressure
High83 °F (Apr 4, 3:53 PM)100% (Apr 6, 7:53 PM)30.42 "Hg (Apr 6, 7:53 PM)
Low33 °F (Apr 16, 6:53 AM)23% (Apr 10, 2:53 PM)29.68 "Hg (Apr 7, 4:53 PM)
Average60 °F72%30.04 "Hg
* Reported Apr 4 4:53 AM — Apr 19 4:53 AM, Macon, Weather by CustomWeather, © 2014

Note: Actual official high and low records may vary slightly from our data, if they occured in-between our weather recording intervals... More about our weather records

Advertising

Historic Weather Conditions — Data for Previous 24 hours

 ConditionsComfort  
Time TempWeatherWind HumidityBarometerVisibility
4:53 AM
Apr 19
52 °FLow clouds.13 mph97%29.98 "Hg8 mi
3:53 AM52 °FOvercast.16 mph97%29.98 "Hg10 mi
3:00 AM52 °FLow clouds.16 mph94%29.99 "Hg10 mi
1:53 AM51 °FOvercast.10 mph96%30.02 "Hg10 mi
12:53 AM51 °FOvercast.14 mph92%30.03 "Hg10 mi
12:03 AM50 °FLight rain. Mostly cloudy.16 mph94%30.04 "Hg10 mi
11:53 PM
Apr 18
50 °FLight rain. Overcast.20 mph96%30.02 "Hg8 mi
10:53 PM51 °FLight rain. Fog.12 mph96%30.07 "Hg3 mi
9:53 PM52 °FHeavy rain. Fog.12 mph97%30.06 "Hg2 mi
8:53 PM52 °FRain. Fog.16 mph97%30.02 "Hg3 mi
7:53 PM52 °FRain. Fog.14 mph97%30.04 "Hg2 mi
6:53 PM53 °FLight rain. Fog.16 mph96%30.04 "Hg2 mi
5:53 PM53 °FRain. Fog.17 mph96%30.07 "Hg2 mi
4:53 PM53 °FRain. Fog.14 mph96%30.07 "Hg2 mi
3:53 PM53 °FRain. Fog.13 mph96%30.13 "Hg2 mi
2:53 PM53 °FLight rain. Fog.12 mph96%30.12 "Hg4 mi
1:53 PM53 °FLight rain. Fog.18 mph93%30.14 "Hg2 mi
1:01 PM52 °FLight rain. Fog.16 mph100%30.21 "Hg2 mi
11:53 AM52 °FRain. Fog.14 mph97%30.24 "Hg2 mi
10:53 AM52 °FRain. Fog.10 mph93%30.25 "Hg4 mi
9:53 AM52 °FLight rain. Fog.10 mph89%30.27 "Hg4 mi
8:53 AM53 °FLight rain. Mostly cloudy.7 mph86%30.27 "Hg7 mi
7:53 AM52 °FLight rain. Mostly cloudy.9 mph86%30.25 "Hg7 mi
6:53 AM52 °FLight rain. Overcast.8 mph83%30.25 "Hg10 mi
Weather by CustomWeather, © 2014

See weather overview